timestamp,surface_pressure_avg,surface_temp_avg,battery_voltage,lat,long
2020-10-10 00:09:01+00:00,258.533,13.3,12.73,47.84626,-54.09684
2020-10-10 00:19:01+00:00,253.3948,13.3,12.73,47.84626,-54.09684
2020-10-10 00:29:01+00:00,256.5764,13.29,12.73,47.84626,-54.09684
2020-10-10 00:39:01+00:00,261.8847,13.4,12.73,47.84626,-54.09684
2020-10-10 00:49:01+00:00,258.3698,13.5,12.73,47.84626,-54.09684
2020-10-10 00:59:01+00:00,255.6464,13.5,12.73,47.84626,-54.09684
2020-10-10 01:09:01+00:00,258.2781,13.52,12.73,47.84626,-54.09684
2020-10-10 01:19:01+00:00,262.0497,13.57,12.73,47.84626,-54.09684
2020-10-10 01:29:01+00:00,259.8131,13.6,12.73,47.84626,-54.09684
2020-10-10 01:39:01+00:00,264.3881,13.6,12.73,47.84626,-54.09684
2020-10-10 01:49:01+00:00,271.0764,13.6,12.73,47.84626,-54.09684
2020-10-10 01:59:01+00:00,273.7847,13.6,12.73,47.84626,-54.09684
2020-10-10 02:09:01+00:00,273.4315,13.6,12.73,47.84626,-54.09684
2020-10-10 02:19:01+00:00,279.3664,13.65,12.73,47.84626,-54.09684
2020-10-10 02:29:01+00:00,281.6847,13.69,12.73,47.84626,-54.09684
2020-10-10 02:39:01+00:00,282.918,13.69,12.73,47.84626,-54.09684
2020-10-10 02:49:01+00:00,288.5013,13.69,12.73,47.84626,-54.09684
2020-10-10 02:59:01+00:00,295.1514,13.7,12.73,47.84626,-54.09684
2020-10-10 03:09:01+00:00,295.3663,13.7,12.73,47.84626,-54.09684
2020-10-10 03:19:01+00:00,300.2681,13.7,12.73,47.84626,-54.09684
2020-10-10 03:29:01+00:00,307.3181,13.7,12.73,47.84626,-54.09684
2020-10-10 03:39:01+00:00,307.1197,13.7,12.73,47.84626,-54.09684
2020-10-10 03:49:01+00:00,304.7797,13.7,12.73,47.84626,-54.09684
2020-10-10 03:59:01+00:00,310.2263,13.7,12.73,47.84626,-54.09684
2020-10-10 04:09:01+00:00,309.118,13.7,12.73,47.84626,-54.09684
2020-10-10 04:19:01+00:00,306.6797,13.7,12.65,47.84626,-54.09684
2020-10-10 04:29:01+00:00,306.5947,13.7,12.65,47.84626,-54.09684
2020-10-10 04:39:01+00:00,311.8497,13.7,12.65,47.84626,-54.09684
2020-10-10 04:49:01+00:00,310.7964,13.65,12.65,47.84626,-54.09684
2020-10-10 04:59:01+00:00,312.628,13.6,12.65,47.84626,-54.09684
2020-10-10 05:09:01+00:00,315.4196,13.6,12.65,47.84626,-54.09684
2020-10-10 05:19:01+00:00,315.2214,13.58,12.65,47.84626,-54.09684
2020-10-10 05:29:01+00:00,310.303,13.56,12.65,47.84626,-54.09684
2020-10-10 05:39:01+00:00,312.028,13.56,12.65,47.84626,-54.09684
2020-10-10 05:49:01+00:00,315.8163,13.55,12.65,47.84626,-54.09684
2020-10-10 05:59:01+00:00,310.963,13.5,12.65,47.84626,-54.09684
2020-10-10 06:09:01+00:00,305.8363,13.5,12.65,47.84626,-54.09684
2020-10-10 06:19:01+00:00,308.7546,13.5,12.65,47.84626,-54.09684
2020-10-10 06:29:01+00:00,307.77299999999997,13.5,12.65,47.84626,-54.09684
2020-10-10 06:39:01+00:00,301.538,13.5,12.65,47.84626,-54.09684
2020-10-10 06:49:01+00:00,297.728,13.5,12.65,47.84626,-54.09684
2020-10-10 06:59:01+00:00,298.6164,13.5,12.65,47.84626,-54.09684
2020-10-10 07:09:01+00:00,291.1797,13.44,12.65,47.84626,-54.09684
2020-10-10 07:19:01+00:00,282.3198,13.4,12.65,47.84626,-54.09684
2020-10-10 07:29:01+00:00,277.618,13.4,12.65,47.84626,-54.09684
2020-10-10 07:39:01+00:00,274.4531,13.4,12.65,47.84626,-54.09684
2020-10-10 07:49:01+00:00,268.2414,13.4,12.65,47.84626,-54.09684
2020-10-10 07:59:01+00:00,262.6665,13.4,12.65,47.84626,-54.09684
2020-10-10 08:09:01+00:00,257.7314,13.4,12.65,47.84626,-54.09684
2020-10-10 08:19:01+00:00,253.8881,13.4,12.65,47.84626,-54.09684
2020-10-10 08:29:01+00:00,251.958,13.4,12.65,47.84626,-54.09684
2020-10-10 08:39:01+00:00,249.4031,13.4,12.65,47.84626,-54.09684
2020-10-10 08:49:01+00:00,248.1847,13.4,12.65,47.84626,-54.09684
2020-10-10 08:59:01+00:00,246.0881,13.4,12.65,47.84626,-54.09684
2020-10-10 09:09:01+00:00,242.9831,13.38,12.65,47.84626,-54.09684
2020-10-10 09:19:01+00:00,238.2164,13.3,12.65,47.84626,-54.09684
2020-10-10 09:29:01+00:00,236.3598,13.39,12.65,47.84626,-54.09684
2020-10-10 09:39:01+00:00,236.6848,13.4,12.65,47.84626,-54.09684
2020-10-10 09:49:01+00:00,235.6614,13.4,12.65,47.84626,-54.09684
2020-10-10 09:59:01+00:00,232.6565,13.4,12.65,47.84626,-54.09684
2020-10-10 10:09:01+00:00,233.1531,13.36,12.65,47.84626,-54.09684
2020-10-10 10:19:01+00:00,235.4514,13.39,12.65,47.84626,-54.09684
2020-10-10 10:29:01+00:00,236.8098,13.3,12.65,47.84626,-54.09684
2020-10-10 10:39:01+00:00,238.0047,13.3,12.65,47.84626,-54.09684
2020-10-10 10:49:01+00:00,240.4581,13.3,12.65,47.84626,-54.09684
2020-10-10 10:59:01+00:00,241.5898,13.3,12.65,47.84626,-54.09684
2020-10-10 11:09:01+00:00,240.9348,13.29,12.65,47.84626,-54.09684
2020-10-10 11:19:01+00:00,242.0514,13.25,14.48,47.84626,-54.09684
2020-10-10 11:29:01+00:00,244.7181,13.24,14.48,47.84626,-54.09684
2020-10-10 11:39:01+00:00,244.548,13.2,14.48,47.84626,-54.09684
2020-10-10 11:49:01+00:00,244.2698,13.2,14.48,47.84626,-54.09684
2020-10-10 11:59:01+00:00,247.963,13.2,14.48,47.84626,-54.09684
2020-10-10 12:09:01+00:00,254.5081,13.2,14.48,47.84626,-54.09684
2020-10-10 12:19:01+00:00,257.2931,13.2,14.64,47.84626,-54.09684
2020-10-10 12:29:01+00:00,257.7914,13.18,14.64,47.84626,-54.09684
2020-10-10 12:39:01+00:00,262.1381,13.16,14.64,47.84626,-54.09684
2020-10-10 12:49:01+00:00,266.1631,13.16,14.64,47.84626,-54.09684
2020-10-10 12:59:01+00:00,268.5598,13.12,14.64,47.84626,-54.09684
2020-10-10 13:09:01+00:00,268.8881,13.1,14.64,47.84626,-54.09684
2020-10-10 13:19:01+00:00,268.6097,13.1,14.64,47.84626,-54.09684
2020-10-10 13:29:01+00:00,271.3098,13.1,14.64,47.84626,-54.09684
2020-10-10 13:39:01+00:00,275.2447,13.1,14.64,47.84626,-54.09684
2020-10-10 13:49:01+00:00,277.5498,13.1,14.64,47.84626,-54.09684
2020-10-10 13:59:01+00:00,279.433,13.1,14.64,47.84626,-54.09684
2020-10-10 14:09:01+00:00,283.388,13.1,14.64,47.84626,-54.09684
2020-10-10 14:19:01+00:00,288.5847,13.1,14.64,47.84626,-54.09684
2020-10-10 14:29:01+00:00,292.4263,13.09,14.64,47.84626,-54.09684
2020-10-10 14:39:01+00:00,296.358,13.05,14.64,47.84626,-54.09684
2020-10-10 14:49:01+00:00,303.3964,13.03,14.64,47.84626,-54.09684
2020-10-10 14:59:01+00:00,307.6263,13.04,14.64,47.84626,-54.09684
2020-10-10 15:09:01+00:00,309.3464,13.09,14.64,47.84626,-54.09684
2020-10-10 15:19:01+00:00,312.0747,13.19,14.48,47.84626,-54.09684
2020-10-10 15:29:01+00:00,316.1481,13.35,14.48,47.84626,-54.09684
2020-10-10 15:39:01+00:00,323.0347,13.52,14.48,47.84626,-54.09684
2020-10-10 15:49:01+00:00,325.5096,13.56,14.48,47.84626,-54.09684
2020-10-10 15:59:01+00:00,329.4229,13.5,14.48,47.84626,-54.09684
2020-10-10 16:09:01+00:00,337.1513,13.5,14.48,47.84626,-54.09684
2020-10-10 16:19:01+00:00,341.2496,13.5,14.4,47.84626,-54.09684
2020-10-10 16:29:01+00:00,338.9913,13.57,14.4,47.84626,-54.09684
2020-10-10 16:39:01+00:00,341.3713,13.5,14.4,47.84626,-54.09684
2020-10-10 16:49:01+00:00,347.0896,13.5,14.4,47.84626,-54.09684
2020-10-10 16:59:01+00:00,347.1546,13.3,14.4,47.84626,-54.09684
2020-10-10 17:09:01+00:00,345.8029,13.3,14.4,47.84626,-54.09684
2020-10-10 17:19:01+00:00,346.898,13.37,14.08,47.84626,-54.09684
2020-10-10 17:29:01+00:00,347.8913,13.4,14.08,47.84626,-54.09684
2020-10-10 17:39:01+00:00,346.3713,13.4,14.08,47.84626,-54.09684
2020-10-10 17:49:01+00:00,346.708,13.4,14.08,47.84626,-54.09684
2020-10-10 17:59:01+00:00,348.9779,13.4,14.08,47.84626,-54.09684
2020-10-10 18:09:01+00:00,348.6063,13.3,14.08,47.84626,-54.09684
2020-10-10 18:19:01+00:00,343.1196,13.3,13.76,47.84626,-54.09684
2020-10-10 18:29:01+00:00,340.0646,13.32,13.76,47.84626,-54.09684
2020-10-10 18:39:01+00:00,341.2513,13.39,13.76,47.84626,-54.09684
2020-10-10 18:49:01+00:00,337.0479,13.4,13.76,47.84626,-54.09684
2020-10-10 18:59:01+00:00,330.4547,13.4,13.76,47.84626,-54.09684
2020-10-10 19:09:01+00:00,323.2697,13.4,13.76,47.84626,-54.09684
2020-10-10 19:19:01+00:00,320.6979,13.35,13.44,47.84626,-54.09684
2020-10-10 19:29:01+00:00,318.308,13.3,13.44,47.84626,-54.09684
2020-10-10 19:39:01+00:00,312.9747,13.28,13.44,47.84626,-54.09684
2020-10-10 19:49:01+00:00,304.3097,13.2,13.44,47.84626,-54.09684
2020-10-10 19:59:01+00:00,301.8363,13.1,13.44,47.84626,-54.09684
2020-10-10 20:09:01+00:00,303.0347,13.1,13.44,47.84626,-54.09684
2020-10-10 20:19:01+00:00,300.8181,13.06,13.44,47.84626,-54.09684
2020-10-10 20:29:01+00:00,293.6564,13.06,13.44,47.84626,-54.09684
2020-10-10 20:39:01+00:00,293.593,13.2,13.44,47.84626,-54.09684
2020-10-10 20:49:01+00:00,289.1764,13.2,13.44,47.84626,-54.09684
2020-10-10 20:59:01+00:00,281.7264,13.2,13.44,47.84626,-54.09684
2020-10-10 21:09:01+00:00,275.1847,13.1,13.44,47.84626,-54.09684
2020-10-10 21:19:01+00:00,274.7631,13.1,13.05,47.84626,-54.09684
2020-10-10 21:29:01+00:00,274.8114,13.1,13.05,47.84626,-54.09684
2020-10-10 21:39:01+00:00,269.2664,13.09,13.05,47.84626,-54.09684
2020-10-10 21:49:01+00:00,261.538,13.06,13.05,47.84626,-54.09684
2020-10-10 21:59:01+00:00,261.438,13.08,13.05,47.84626,-54.09684
2020-10-10 22:09:01+00:00,263.7431,13.1,13.05,47.84626,-54.09684
2020-10-10 22:19:01+00:00,260.7131,13.09,12.73,47.84626,-54.09684
2020-10-10 22:29:01+00:00,252.9981,13.0,12.73,47.84626,-54.09684
2020-10-10 22:39:01+00:00,253.5531,13.0,12.73,47.84626,-54.09684
2020-10-10 22:49:01+00:00,254.623,13.0,12.73,47.84626,-54.09684
2020-10-10 22:59:01+00:00,252.6881,12.99,12.73,47.84626,-54.09684
2020-10-10 23:09:01+00:00,248.7431,12.98,12.73,47.84626,-54.09684
2020-10-10 23:19:01+00:00,252.9064,12.98,12.73,47.84626,-54.09684
2020-10-10 23:29:01+00:00,254.3297,13.0,12.73,47.84626,-54.09684
2020-10-10 23:39:01+00:00,255.0698,13.0,12.73,47.84626,-54.09684
2020-10-10 23:49:01+00:00,254.9164,13.0,12.73,47.84626,-54.09684
2020-10-10 23:59:01+00:00,255.9964,13.0,12.73,47.84626,-54.09684
